STARLINK-32764 (62570 NORAD) Tracking and Keplerian Element Data

This shows tracking and keplerian element data for the satellite.

Feedback or suggestion? Click here.




ElementValue
Catalog62570
NameSTARLINK-32764
Epoch Orbit482
Epoch Day34.83335648
Epoch Year2025
RAAN29.5396
Inclination43.0005
Eccentricity0.0001694
Argument of Perigee259.9298
Mean Anonmoly26.7636
Mean Motion15.50575765
Decay Rate0.00018927
L11 62570U 25006S 25034.83335648 .00018927 00000+0 32770-3 0 9995
L22 62570 43.0005 29.5396 0001694 259.9298 26.7636 15.50575765 4822



Live tracking and technical data element details for STARLINK-32764 (NORAD 62570). STARLINK-32764 can be tracked NOW for your location showing map with azimuth and elevation plus other details from your city location.







IsCatalogInMostPopularTable: catalog: 62570, numindb: 19
Update: records affected: 1



GetName: 62570 STARLINK-32764

Hit Count: updated at: Sun, 18 May 2025 22:31:30 GMT